Regional Weather Roundup
Issued by NWS

Home | Current Version | Previous Version | Graphics & Text | Print | Product List | Glossary On
Versions: 1 2 3 4 5 6 7 8 9 10 11 12 13 14 15 16 17 18 19 20 21 22 23 24 25 26 27 28 29 30 31 32 33 34 35 36 37 38 39 40 41 42 43 44 45 46 47 48 49 50
000
ASUS43 KMKX 221410
RWRWI

WISCONSIN REGIONAL WEATHER ROUNDUP
NATIONAL WEATHER SERVICE MILWAUKEE/SULLIVAN WI
900 AM CDT TUE MAY 22 2018

NOTE: "FAIR" INDICATES FEW OR NO CLOUDS BELOW 12,000 FEET WITH NO
SIGNIFICANT WEATHER AND/OR OBSTRUCTIONS TO VISIBILITY.

WIZ001-002-006>008-014>016-023>028-221500-
NORTHWEST WISCONSIN

CITY           SKY/WX    TMP DP  RH WIND       PRES   REMARKS
SUPERIOR ARPT  FAIR      60  51  71 CALM      30.04S
ASHLAND        PTSUNNY   64  55  72 SW6       30.04S
HAYWARD        CLOUDY    61  54  77 CALM      30.05S
SIREN          FAIR      63  54  72 CALM      30.05S
CUMBERLAND     CLOUDY    55  52  88 CALM      30.06R
RICE LAKE      CLOUDY    58  54  85 NE3       30.07R
CHETEK         CLOUDY    57  54  89 CALM      30.06R
LADYSMITH      CLOUDY    57  54  90 N5        30.07R
EAU CLAIRE     CLOUDY    57  55  93 CALM      30.05R
MENOMONIE      CLOUDY    58  55  89 E3        30.06R
NEW RICHMOND   CLOUDY    59  53  81 CALM      30.06R
OSCEOLA        CLOUDY    62  55  78 E3        30.08R
$$

WIZ003>005-009-010-017-018-221500-
NORTH CENTRAL WISCONSIN

CITY           SKY/WX    TMP DP  RH WIND       PRES   REMARKS
MANITOWISH WTR CLOUDY    61  57  87 NW3       30.04F
ARBOR VITAE    CLOUDY    59  55  84 N7        30.05S
WOODRUFF       CLOUDY    59  55  84 N7        30.05S
RHINELANDER    CLOUDY    60  54  80 NW5       30.06R
EAGLE RIVER    FAIR      59  50  73 NW3       30.04F
LAND O LAKES   FAIR      61  51  70 NW3       30.06F
PHILLIPS       CLOUDY    55  54  95 NE3       30.05S
TOMAHAWK       PTSUNNY   56  52  85 CALM      30.06S
MEDFORD        CLOUDY    55  53  94 NW6       30.06R
MERRILL        CLOUDY    58  54  85 CALM      30.06R
$$

WIZ029-030-035-036-043>047-221500-
CENTRAL WISCONSIN

CITY           SKY/WX    TMP DP  RH WIND       PRES   REMARKS
WAUSAU         FAIR      58  52  80 NE3       30.03F
MOSINEE        PTSUNNY   54  54 100 CALM      30.06S FOG
MARSHFIELD     PTSUNNY   57  54  89 E5        30.04R
STEVENS POINT  CLOUDY    54  53  96 NW5       30.06R
WAUPACA        CLOUDY    58  53  84 CALM      30.06R
WAUTOMA        CLOUDY    54  51  90 CALM      30.06S
WISC RAPIDS    CLOUDY    57  53  86 N3        30.06R
CAMP DOUGLAS   CLOUDY    55  55 100 CALM      30.06R
$$

WIZ011>013-019>022-031-037>040-048>050-221500-
NORTHEAST WISCONSIN

CITY           SKY/WX    TMP DP  RH WIND       PRES   REMARKS
ANTIGO         CLOUDY    53  53 100 CALM      30.06S
SHAWANO        PTSUNNY   58  53  82 E3        30.04F
OCONTO         CLOUDY    53  49  84 CALM      30.05S
STURGEON BAY   CLOUDY    51  50  96 NW3       30.06S
GREEN BAY      CLOUDY    54  51  90 N3        30.06R
MANITOWOC      CLOUDY    51  49  92 N6        30.06R
APPLETON       CLOUDY    54  52  94 N6        30.04R
CLINTONVILLE   CLOUDY    55  50  83 NE3       30.05S
OSHKOSH        CLOUDY    54  51  90 N6        30.05R
$$

WIZ032>034-041-042-053>061-221500-
SOUTHWEST WISCONSIN

CITY           SKY/WX    TMP DP  RH WIND       PRES   REMARKS
LA CROSSE      CLOUDY    59  55  87 CALM      30.06R
SPARTA         CLOUDY    53  52  97 CALM      30.07R
VIROQUA        CLOUDY    56  56 100 CALM      30.06R
BOSCOBEL       CLOUDY    59  56  89 N3        30.06S
PRAIRIE DU CHI CLOUDY    62  58  86 NW5       30.06R
PLATTEVILLE    CLOUDY    59  59 100 CALM      30.06R
$$

WIZ056-057-062-063-064-067-068-221500-
SOUTH CENTRAL WISCONSIN

CITY           SKY/WX    TMP DP  RH WIND       PRES   REMARKS
REEDSBURG      CLOUDY    54  54 100 CALM      30.06R
BARABOO/DELLS  CLOUDY    53  52  96 CALM      30.06S FOG
LONE ROCK      CLOUDY    57  56  96 CALM      30.06S FOG
MINERAL POINT  CLOUDY    57  57 100 N3        30.06R FOG
MADISON        CLOUDY    55  52  89 NW7       30.05R
MIDDLETON      CLOUDY    57  54  92 N3        30.06R
WATERTOWN      CLOUDY    53  53 100 NW3       30.05R
MONROE         CLOUDY    55  54  94 CALM      30.05R FOG
JANESVILLE     CLOUDY    57  57 100 NW3       30.05R FOG
$$

WIZ051-052-058>065-066-070>072-221500-
SOUTHEAST WISCONSIN

CITY           SKY/WX    TMP DP  RH WIND       PRES   REMARKS
MILWAUKEE      FOG       52  50  93 N3        30.05R VSB 1
WAUKESHA       CLOUDY    50  50 100 CALM      30.05R FOG
MILWAUKEE/TIMM CLOUDY    52  48  87 CALM      30.06R FOG
RACINE         CLOUDY    51  51 100 N8        30.05S FOG
BURLINGTON     CLOUDY    54  52  94 N3        30.04R
KENOSHA        CLOUDY    54  51  90 N6        30.04R
FOND DU LAC    CLOUDY    54  51  90 NW5       30.06R
SHEBOYGAN      CLOUDY    51  51 100 N6        30.05R FOG
WEST BEND      CLOUDY    52  52 100 NW3       30.05R
JUNEAU         CLOUDY    52  51  96 N3        30.07R FOG
$$

LSZ147-162-221500-
LAKE SUPERIOR

STATION/POSITION TIME  TEMP    WIND        PRES    WAVE
                       AIR SEA DIR/SP/G            HT/PER
                 (UTC) (F)     (DEG/KT/KT) (MB)    (FT/S)
W MID LAKE BUOY  1350   40 36  240/  6/  8 1017.1F   0
DEVILS ISLAND    1300   47     270/  7/  8 1017.6R
SAXON HARBOR     1340   62     290/  3/  7 1016.6S
$$

LMZ867-665-643>646-221500-
LAKE MICHIGAN

STATION/POSITION TIME  TEMP    WIND        PRES    WAVE
                       AIR SEA DIR/SP/G            HT/PER
                 (UTC) (F)     (DEG/KT/KT) (MB)    (FT/S)
N MID LAKE BUOY  1350   42 37  360/  2/  2 1017.1R   0
NORTHPORT PIER   1340   50     310/  4/  5 1017.6R
KEWAUNEE LAKESHO 1342   50      30/  4/  5 1017.1R
SHEBOYGAN LAKESH 1400   47      10/  9/ 10 1017.8R
PORT WASHINGTON  1340   50      60/  3/  5 1018.3R
ATWATER BUOY     1307   46 47  340/  6/  6 1017.5
MILWAUKEE LAKESH 1350   49     360/  3/  4   N/A
KENOSHA   LAKESH 1300   49                 1017.3
$$

TC  - TEMPERATURE IN CELSIUS
VSB - VISIBILITY IN STATUTE MILES
WCI - WIND CHILL INDEX
HX  - HEAT INDEX




USA.gov is the U.S. government's official web portal to all federal, state and local government web resources and services.